Regional Weather Roundup
Issued by NWS

Home | Current Version | Previous Version | Text Only | Print | Product List | Glossary Off
Versions: 1 2 3 4 5 6 7 8 9 10 11 12 13 14 15 16 17 18 19 20 21 22 23 24 25 26 27 28 29 30 31 32 33 34 35 36 37 38 39 40 41 42 43 44 45 46 47 48 49 50

000
ASUS43 KLMK 040902
RWRKY
KENTUCKY REGIONAL WEATHER ROUNDUP
NATIONAL WEATHER SERVICE LOUISVILLE KY
500 AM EDT WED MAY 04 2016

NOTE "FAIR" INDICATES FEW OR NO CLOUDS BELOW 12,000 FEET
WITH NO SIGNIFICANT WEATHER AND/OR OBSTRUCTIONS TO VISIBILITY.

KYZ001>023-026-027-061>063-070>075-041000-
WESTERN AND SOUTH CENTRAL KENTUCKY

CITY           SKY/WX    TMP DP  RH WIND       PRES   REMARKS
PADUCAH        CLEAR     50  46  86 SW6       29.85F
HENDERSON      CLEAR     50  43  76 SW8       29.81F
OWENSBORO      CLEAR     49  45  86 CALM      29.82F
HOPKINSVILLE   CLEAR     48  46  94 SW3       29.86F
BOWLING GREEN  CLOUDY    48  44  86 SW6       29.85F
GLASGOW        NOT AVBL
$$

KYZ024-025-028>034-038-045-046-053-041000-
NORTH CENTRAL KENTUCKY

CITY           SKY/WX    TMP DP  RH WIND       PRES   REMARKS
LOUISVILLE/SDF CLOUDY    54  43  66 SW6       29.79F
LOUISVILLE/LOU CLOUDY    51  46  83 CALM      29.80F
FORT KNOX      NOT AVBL
$$

KYZ035>037-039>044-047>052-055>060-089>105-041000-
NORTHEAST KENTUCKY

CITY           SKY/WX    TMP DP  RH WIND       PRES   REMARKS
LEXINGTON      CLEAR     47  44  90 SW7       29.79F
COVINGTON      CLOUDY    48  46  93 SW5       29.75F
FRANKFORT      CLEAR     48  43  82 SW5       29.78F
$$

KYZ054-064>069-076>088-106>120-041000-
SOUTHEAST KENTUCKY

CITY           SKY/WX    TMP DP  RH WIND       PRES   REMARKS
JACKSON        CLOUDY    51  48  89 VRB3      29.79F
LONDON         CLOUDY    52  46  80 SW7       29.82S
SOMERSET       NOT AVBL
MIDDLESBORO    CLOUDY    53  47  81 W5        29.83R
MONTICELLO     CLOUDY    51  48  89 W10       29.85F
$$





USA.gov is the U.S. government's official web portal to all federal, state and local government web resources and services.